Location: Jordan Lake
(35.7395°N, 79.0242°W)
Time: 06:30:28
(UTC-05:00)

ISS - Visible Passes

Search period start: 06 December 2019 00:00
Search period end: 16 December 2019 00:00
Orbit: 411 x 421 km, 51.6° (Epoch: 06 December)

Date Brightness Start Highest point End Pass type
(mag) Time Alt. Az. Time Alt. Az. Time Alt. Az.
06 Dec -1.3 18:41:10 10° NNW 18:41:53 14° N 18:41:53 14° N visible
07 Dec -1.8 17:53:12 10° N 17:55:03 14° NNE 17:55:45 13° NE visible
08 Dec -2.9 18:40:23 10° NW 18:42:46 37° N 18:42:46 37° N visible
09 Dec -2.8 17:52:05 10° NNW 17:55:04 29° NE 17:57:08 16° E visible
09 Dec -0.8 19:28:55 10° WNW 19:30:06 17° W 19:30:06 17° W visible
10 Dec -2.8 18:40:03 10° WNW 18:43:17 47° SW 18:44:54 25° SSE visible
11 Dec -3.8 17:51:26 10° NW 17:54:48 86° NE 17:58:09 10° SE visible
12 Dec -0.6 18:40:44 10° W 18:42:40 15° SW 18:44:36 10° SSW visible
13 Dec -1.4 17:51:23 10° WNW 17:54:16 27° SW 17:57:09 10° S visible
